Regional Weather Roundup
Issued by NWS

Home | Current Version | Previous Version | Graphics & Text | Print | Product List | Glossary Off
Versions: 1 2 3 4 5 6 7 8 9 10 11 12 13 14 15 16 17 18 19 20 21 22 23 24 25 26 27 28 29 30 31 32 33 34 35 36 37 38 39 40 41 42 43 44 45 46 47 48 49 50

000
ASUS43 KMPX 252310
RWRMN
WEATHER ROUNDUP FOR MINNESOTA
NATIONAL WEATHER SERVICE TWIN CITIES/CHANHASSEN MN
600 PM CDT MON JUL 25 2016


NOTE: "FAIR" INDICATES FEW OR NO CLOUDS BELOW 12,000 FEET WITH NO
SIGNIFICANT WEATHER AND/OR OBSTRUCTIONS TO VISIBILITY. N/A MEANS
CURRENT SKY AND/OR WEATHER CONDITIONS ARE NOT AVAILABLE.

MNZ060>063-068>070-260000-
   Twin Cities Metro

CITY           SKY/WX    TMP DP  RH WIND       PRES   REMARKS
TWIN CITIES    MOSUNNY   86  62  44 NW9G17    30.02F
ST PAUL        SUNNY     85  61  44 NW12      30.02S
CRYSTAL        SUNNY     84  60  44 W9        30.01F
BLAINE         MOSUNNY   86  63  45 W14       30.02F
LAKEVILLE      SUNNY     82  64  54 W7        30.03F
EDEN PRAIRIE   SUNNY     86  63  45 W9        30.02F
LAKEVILLE      SUNNY     82  64  54 W7        30.03F
SOUTH ST PAUL  SUNNY     85  59  41 W9        30.02S
LAKE ELMO      FAIR      82  64  54 W5        30.03S
$$
MNZ001>005-007-008-013>017-022>024-027-028-260000-
   Northwest Minnesota

CITY           SKY/WX    TMP DP  RH WIND       PRES   REMARKS
BEMIDJI        SUNNY     84  63  48 W9        29.99F
HALLOCK        SUNNY     84  64  51 SW6       29.94S
ROSEAU         SUNNY     82  66  57 SW8       29.95F
WARROAD        SUNNY     82  66  57 W9        29.95F
THIEF RVR FALL SUNNY     83  66  56 SW8       29.97F
CROOKSTON      SUNNY     88  66  48 S5        29.94F HX  90
FOSSTON        SUNNY     84  64  51 S7        29.98F
DETROIT LAKES  SUNNY     84  66  54 S10       30.00F
MOORHEAD       SUNNY     90  63  40 S8        29.95S HX  90
PARK RAPIDS    SUNNY     85  63  47 SW10      30.00F
MAHNOMEN       FAIR      84  65  52 SW12      29.97F
$$
MNZ006-009>011-018-025>026-260000-
   North Central Minnesota

CITY           SKY/WX    TMP DP  RH WIND       PRES   REMARKS
BAUDETTE       SUNNY     82  59  45 NW8       29.96S
FLAG ISLAND    SUNNY     81  57  44 NW9       29.92S
INTL FALLS     SUNNY     81  58  45 NW9       29.94F
WASKISH        SUNNY     81  66  61 SW8       29.97S
BIG FORK       SUNNY     82  59  44 W7        29.99S
LONGVILLE      SUNNY     84  63  48 W7        30.00S
GRAND RAPIDS   SUNNY     83  62  49 VRB7      30.01F
CRANE LAKE     SUNNY     81  57  44 W2        29.96F
ORR            SUNNY     81  54  39 W7        29.95S
COOK           SUNNY     81  61  50 W9        29.98S
WALKER         FAIR      83  63  50 SW8       29.99F
$$
MNZ012-019>021-037-260000-
   Northeast Minnesota

CITY           SKY/WX    TMP DP  RH WIND       PRES   REMARKS
DULUTH         MOSUNNY   82  60  47 NW9       29.99F
ELY            SUNNY     79  57  47 W6        29.97F
HIBBING        SUNNY     80  59  48 W10       29.98F
EVELETH        SUNNY     81  55  41 W9        29.99F
DULUTH HARBOR  SUNNY     84  64  51 NW9       29.96S
TWO HARBORS    SUNNY     84  64  51 W3        29.95F
SILVER BAY     SUNNY     82  59  44 W6        29.95S
GRAND MARAIS     N/A     83  49  30 CALM      29.91F
G MARAIS ARPRT MOSUNNY   75  55  50 W7        29.99S
$$
MNZ029>031-032-039>041-046>048-054>057-064-260000-
   West Central Minnesota

CITY           SKY/WX    TMP DP  RH WIND       PRES   REMARKS
FERGUS FALLS   SUNNY     86  63  45 MISG      29.98F
WHEATON        SUNNY     88  66  48 S8        30.00S HX  90
MORRIS         SUNNY     88  63  42 S9        30.00F
ALEXANDRIA     SUNNY     84  64  50 SW13      30.04F
ELBOW LAKE     FAIR      84  67  55 SW7       30.01S
WADENA         SUNNY     82  66  57 SW8       30.01F
GLENWOOD       SUNNY     84  66  54 S10       30.04F
APPLETON       SUNNY     88  57  35 SW7       30.01F
BENSON         SUNNY     86  61  42 SW10      30.02F
ORTONVILLE     SUNNY     86  61  42 S6        30.01S
MADISON        SUNNY     84  63  48 S10       30.02F
WILLMAR        FAIR      84  66  54 SW6       30.05F
$$
MNZ033>034-036-042>043-049>051-058-059-260000-
   Central Minnesota

CITY           SKY/WX    TMP DP  RH WIND       PRES   REMARKS
ST CLOUD       SUNNY     84  65  52 W10       30.02F
SAUK CENTRE    FAIR      83  65  54 SW8       30.04S
PAYNESVILLE    SUNNY     82  64  55 SW8       30.05S
AITKIN         SUNNY     84  59  42 SW6       30.00S
PINE RIVER     SUNNY     84  64  51 W3        30.04S
BRAINERD       SUNNY     84  61  45 W8        30.01F
STAPLES        SUNNY     84  61  45 SW10      30.02S
LONG PRAIRIE   FAIR      82  64  54 S10       30.04F
LITTLE FALLS   SUNNY     82  59  44 SW7       30.03S
LITCHFIELD     SUNNY     82  64  54 W6        30.04F
BUFFALO        SUNNY     83  63  50 SW7       30.04S
MAPLE LAKE     SUNNY     84  65  52 W6        30.04F
HUTCHINSON     SUNNY     83  68  60 SW7       30.05F
$$
MNZ037-044-045-052-053-260000-
   East Central Minnesota

CITY           SKY/WX    TMP DP  RH WIND       PRES   REMARKS
PRINCETON      SUNNY     86  64  48 W8        30.02S
MORA           SUNNY     81  61  50 W6        30.03F
CAMBRIDGE      SUNNY     86  66  51 W7        30.00F
RUSH CITY      SUNNY     82  63  53 W9        30.02F
MOOSE LAKE     MOSUNNY   81  61  50 W8        29.99S
HINCKLEY       FAIR      82  64  54 W5        30.01F
CLOQUET        SUNNY     82  57  42 W9        30.00S
MCGREGOR       MOSUNNY   82  61  47 SW5       30.01F
$$
MNZ071>073-080-081-089-090-097-098-260000-
   Southwest Minnesota

CITY           SKY/WX    TMP DP  RH WIND       PRES   REMARKS
MONTEVIDEO     SUNNY     86  64  48 SW10      30.04F
GRANITE FALLS  SUNNY     87  67  51 S6        30.05F
CANBY          SUNNY     86  58  37 SW7       30.04F
MARSHALL       SUNNY     85  64  49 SW9       30.04F
REDWOOD FALLS  MOSUNNY   86  64  47 W10       30.03F
OLIVIA         SUNNY     82  66  57 W7        30.04S
PIPESTONE      SUNNY     84  63  48 SW7       30.08F
WINDOM         SUNNY     84  61  45 SW6       30.07F
WORTHINGTON    SUNNY     83  65  54 VRB7      30.08F
JACKSON        SUNNY     84  59  42 W6        30.08F
TRACY          SUNNY     84  64  51 SW7       30.06F
SLAYTON        SUNNY     84  60  43 SW7       30.08F
$$
MNZ065>067-074>077-082>085-091>093-260000-
   South Central Minnesota

CITY           SKY/WX    TMP DP  RH WIND       PRES   REMARKS
MANKATO        SUNNY     82  63  51 NW6       30.05F
NEW ULM        SUNNY     84  63  48 W5        30.04F
ST JAMES       SUNNY     81  61  50 CALM      30.06S
FAIRMONT       SUNNY     84  64  51 NW6       30.05F
GLENCOE        SUNNY     84  67  56 W5        30.03F
FARIBAULT      SUNNY     82  66  57 W7        30.05F
OWATONNA       SUNNY     82  63  51 W6        30.06S
WASECA         SUNNY     79  64  61 NW8       30.07F
ALBERT LEA     SUNNY     81  64  57 NW5       30.06F
$$
MNZ078>079-086>088-094>096-260000-
   Southeast Minnesota

CITY           SKY/WX    TMP DP  RH WIND       PRES   REMARKS
ROCHESTER      SUNNY     82  65  56 N9        30.06F
RED WING       SUNNY     84  57  39 N6        30.00F
STANTON        SUNNY     84  63  48 W9        30.02F
DODGE CENTER   SUNNY     82  61  47 NW9       30.06F
WINONA         SUNNY     82  59  44 NW7       30.02S
AUSTIN         SUNNY     81  64  57 N6        30.06F
PRESTON        SUNNY     80  61  53 N9        30.06S
$$
ABBREVIATIONS USED IN REMARKS
   TC - TEMPERATURES IN CELSIUS
  WCI - WIND CHILL INDEX
   HX - HEAT INDEX
  VSB - VISIBILITY
$$




USA.gov is the U.S. government's official web portal to all federal, state and local government web resources and services.